Content
SEND FEEDBACK

Daily
Averages
Monthly
Summary
United States of America

UPI, GUAM


Home > North America > United States > Guam
Elevation: 53 feet     Latitude: 13 34N     Longitude: 144 55E

WEATHER
 
SELECT A DAY
Number of Records: 213,899;   Date Range: 1/1/95 - 10/23/14
 
SHARE

PRINT THIS DATA

[ ← Previous Day ]
WEATHER ALMANAC - OCTOBER 18, 2013
[ Next Day → ]
[ °C ]   °F
Weather ElementAverageHighLow
Temperature79.1 °F82.9 °F (12:54 pm)75.2 °F (5:46 am)
Dewpoint76.5 °F78.8 °F (10:58 am)75 °F (1:54 am)
Humidity92 %100 % (5:31 am)79 % (2:19 pm)
Barometer29.64 in29.70 in (9:19 am)29.57 in (2:54 pm)
Wind Speed17.5 mph29.9 mph (2:48 am)
Wind Gust40.3 mph (2:20 am)
Weather ElementAverage
Visibility6 mi
Wind DirectionSSE (153.7 °)

Weather ElementTotal
Precipitation8.33 in
Cooling Degree Days14.1 (Base 65)
Growing Degree Days29.1 (Base 50)
Averaged from 70 records on October 18, 2013
WEATHER CONDITIONS BREAKOUT
WIND DIRECTION BREAKOUT
WEATHER BY HOUR - OCTOBER 18, 2013
[ °C ]   °F
Local TimeTemperatureDewpointHumidityBarometerVisibilityWind DirectionWind SpeedGust SpeedPrecipitationEventsConditions
1:12 AM78.8 °F75.2 °F89 %29.65 in10.0 miEast (100°)20.7 mph33.4 mph0.00 inOvercast
1:51 AM78.8 °F75.2 °F89 %29.64 in8.0 miESE (110°)23.0 mph38.0 mph0.03 inRainLight Rain
1:54 AM78.1 °F75.0 °F90 %29.62 in7.0 miEast (100°)26.5 mph38.0 mph0.03 inRainRain
2:20 AM78.8 °F75.2 °F89 %29.62 in7.0 miEast (100°)23.0 mph40.3 mph0.02 inRainLight Rain
2:48 AM78.8 °F75.2 °F89 %29.61 in2.5 miESE (110°)29.9 mph40.3 mph0.04 inRainHeavy Rain
2:54 AM77.0 °F75.9 °F96 %29.59 in4.0 miESE (120°)20.7 mph40.3 mph0.07 inRainLight Rain
3:21 AM78.8 °F75.2 °F89 %29.61 in10.0 miESE (110°)18.4 mph34.5 mph0.01 inRainLight Rain
3:54 AM78.1 °F75.9 °F93 %29.59 in10.0 miESE (120°)16.1 mph31.1 mph0.01 inMostly Cloudy
4:54 AM78.1 °F77.0 °F96 %29.59 in1.8 miESE (120°)10.4 mph25.3 mph0.23 inRainHeavy Rain
5:15 AM78.8 °F77.0 °F94 %29.62 in0.8 miSSE (150°)16.1 mph23.0 mph0.42 inRainHeavy Rain
5:31 AM77.0 °F77.0 °F100 %29.61 in2.0 miSE (140°)16.1 mph34.5 mph1.03 inRainRain
5:34 AM77.0 °F77.0 °F100 %29.61 in3.0 miSSE (150°)17.3 mph25.3 mph1.04 inRainRain
5:46 AM75.2 °F75.2 °F100 %29.62 in8.0 miSSE (150°)26.5 mph36.8 mph1.05 inRainLight Rain
5:54 AM75.9 °F75.0 °F97 %29.60 in6.0 miSE (140°)19.6 mph36.8 mph1.05 inRainRain
6:54 AM77.0 °F75.0 °F94 %29.63 in7.0 miSE (140°)18.4 mph34.5 mph0.02 inRainLight Rain
7:01 AM77.0 °F75.2 °F94 %29.66 in6.0 miSE (130°)18.4 mph31.1 mph0.01 inRainLight Rain
7:21 AM77.0 °F75.2 °F94 %29.66 in4.0 miSE (140°)13.8 mph23.0 mph0.05 inRainRain
7:26 AM75.2 °F75.2 °F100 %29.67 in4.0 miSE (140°)19.6 mph29.9 mph0.06 inRainLight Rain
7:54 AM77.0 °F75.0 °F94 %29.65 in6.0 miSE (140°)18.4 mph29.9 mph0.06 inRainLight Rain
8:04 AM78.8 °F75.2 °F89 %29.67 in2.0 miSSE (150°)20.7 mph35.7 mph0.03 inRainHeavy Rain
8:13 AM78.8 °F75.2 °F89 %29.68 in3.0 miSSE (150°)23.0 mph38.0 mph0.06 inRainRain
8:27 AM77.0 °F75.2 °F94 %29.69 in5.0 miSE (140°)17.3 mph33.4 mph0.07 inRainLight Rain
8:54 AM77.0 °F75.0 °F94 %29.68 in6.0 miSSE (150°)17.3 mph0.11 inRainLight Rain
9:19 AM78.8 °F75.2 °F89 %29.70 in10.0 miSE (140°)17.3 mph26.5 mph0.00 inMostly Cloudy
9:54 AM79.0 °F75.9 °F90 %29.65 in9.0 miESE (120°)15.0 mph25.3 mph0.00 inOvercast
10:17 AM78.8 °F77.0 °F94 %29.69 in5.0 miSSE (150°)18.4 mph31.1 mph0.00 inRainLight Rain
10:26 AM78.8 °F75.2 °F89 %29.69 in2.5 miSouth (170°)19.6 mph29.9 mph0.01 inRainLight Rain
10:28 AM78.8 °F77.0 °F94 %29.69 in1.8 miSSE (160°)18.4 mph29.9 mph0.02 inRainHeavy Rain
10:42 AM77.0 °F75.2 °F94 %29.68 in2.0 miSSE (160°)11.5 mph23.0 mph0.19 inRainRain
10:49 AM77.0 °F75.2 °F94 %29.67 in1.0 miSSE (160°)19.6 mph26.5 mph0.29 inRainHeavy Rain
10:54 AM78.1 °F77.0 °F96 %29.65 in1.2 miSouth (170°)18.4 mph28.8 mph0.34 inRainHeavy Rain
10:58 AM78.8 °F78.8 °F100 %29.68 in2.5 miSSE (160°)15.0 mph28.8 mph0.00 inRainLight Rain
11:06 AM78.8 °F77.0 °F94 %29.66 in4.0 miSSE (150°)15.0 mph24.2 mph0.02 inRainLight Rain
11:51 AM80.6 °F77.0 °F89 %29.64 in10.0 miSSE (160°)24.2 mph33.4 mph0.03 inOvercast
11:54 AM81.0 °F77.0 °F88 %29.62 in10.0 miSSE (160°)24.2 mph36.8 mph0.03 inOvercast
12:26 PM80.6 °F75.2 °F84 %29.63 in7.0 miSSE (150°)24.2 mph38.0 mph0.00 inRainLight Rain
12:54 PM82.9 °F77.0 °F82 %29.60 in10.0 miSSE (160°)21.9 mph38.0 mph0.00 inOvercast
1:03 PM80.6 °F77.0 °F89 %29.62 in5.0 miSSE (150°)20.7 mph38.0 mph0.00 inRainRain
1:54 PM81.0 °F77.0 °F88 %29.58 in8.0 miSSE (160°)25.3 mph38.0 mph0.01 inRainLight Rain
2:11 PM82.4 °F77.0 °F84 %29.60 in6.0 miSSE (160°)23.0 mph36.8 mph0.01 inRainLight Rain
2:19 PM82.4 °F75.2 °F79 %29.60 in10.0 miSSE (160°)19.6 mph39.1 mph0.01 inOvercast
2:26 PM80.6 °F75.2 °F84 %29.60 in10.0 miSSE (160°)17.3 mph34.5 mph0.01 inRainLight Rain
2:54 PM82.0 °F75.9 °F82 %29.57 in10.0 miSSE (160°)23.0 mph33.4 mph0.01 inRainLight Rain
3:30 PM78.8 °F77.0 °F94 %29.60 in2.0 miSSE (160°)16.1 mph31.1 mph0.03 inRainHeavy Rain
3:46 PM80.6 °F78.8 °F94 %29.60 in0.8 miSouth (170°)10.4 mph29.9 mph0.12 inRainHeavy Rain
3:54 PM79.0 °F78.1 °F97 %29.58 in1.0 miSouth (180°)16.1 mph24.2 mph0.48 inRainLight Rain
3:56 PM80.6 °F78.8 °F94 %29.60 in3.0 miSouth (170°)12.7 mph24.2 mph0.00 inRainLight Rain
4:43 PM80.6 °F77.0 °F89 %29.61 in9.0 miSouth (170°)18.4 mph31.1 mph0.00 inMostly Cloudy
4:54 PM81.0 °F77.0 °F88 %29.59 in10.0 miSSE (160°)12.7 mph23.0 mph0.00 inMostly Cloudy
5:04 PM80.6 °F77.0 °F89 %29.62 in5.0 miSouth (170°)16.1 mph33.4 mph0.00 inRainLight Rain
5:35 PM78.8 °F75.2 °F89 %29.63 in10.0 miSSE (160°)15.0 mph26.5 mph0.00 inRainLight Rain
5:45 PM78.8 °F77.0 °F94 %29.64 in1.5 miSouth (170°)12.7 mph21.9 mph0.02 inRainLight Rain
5:52 PM78.8 °F77.0 °F94 %29.63 in1.0 miSouth (180°)11.5 mph18.4 mph0.14 inRainHeavy Rain
5:54 PM78.1 °F78.1 °F100 %29.62 in2.0 miSouth (180°)10.4 mph18.4 mph0.16 inRainRain
5:58 PM78.8 °F78.8 °F100 %29.64 in4.0 miSouth (180°)9.2 mph0.01 inRainLight Rain
6:04 PM78.8 °F78.8 °F100 %29.64 in1.0 miSSW (200°)11.5 mph20.7 mph0.03 inRainHeavy Rain
6:11 PM78.8 °F77.0 °F94 %29.65 in2.0 miSouth (180°)15.0 mph26.5 mph0.27 inRainRain
6:13 PM78.8 °F77.0 °F94 %29.65 in3.0 miSouth (190°)16.1 mph26.5 mph0.28 inRainLight Rain
6:49 PM78.8 °F77.0 °F94 %29.64 in10.0 miSSE (160°)18.4 mph24.2 mph0.31 inMostly Cloudy
6:54 PM79.0 °F77.0 °F94 %29.62 in10.0 miSouth (170°)15.0 mph26.5 mphMostly Cloudy
7:03 PM78.8 °F78.8 °F100 %29.64 in10.0 miSSE (160°)17.3 mph24.2 mphMostly Cloudy
7:31 PM80.6 °F77.0 °F89 %29.65 in10.0 miSouth (170°)17.3 mph25.3 mphMostly Cloudy
7:54 PM80.1 °F77.0 °F90 %29.64 in10.0 miSouth (170°)11.5 mph21.9 mphScattered Clouds
8:54 PM80.1 °F75.9 °F87 %29.67 in10.0 miSouth (170°)16.1 mph27.6 mphScattered Clouds
9:50 PM80.6 °F78.8 °F94 %29.68 in10.0 miSouth (170°)10.4 mph19.6 mphMostly Cloudy
9:54 PM81.0 °F78.1 °F91 %29.66 in10.0 miSouth (170°)13.8 mph20.7 mphMostly Cloudy
10:05 PM80.6 °F77.0 °F89 %29.68 in10.0 miSouth (170°)12.7 mph21.9 mphMostly Cloudy
10:54 PM81.0 °F77.0 °F88 %29.65 in10.0 miSouth (170°)19.6 mph28.8 mph0.00 inMostly Cloudy
11:43 PM80.6 °F77.0 °F89 %29.67 in10.0 miSouth (170°)13.8 mph21.9 mph0.00 inRainLight Rain
11:54 PM81.0 °F78.1 °F91 %29.65 in10.0 miSouth (170°)12.7 mph24.2 mph0.00 inMostly Cloudy
Hourly data recorded from PGUM, located miles away from Upi, Guam







STORIES FROM OUR PARTNERS